STARLINK-1615 (46166 NORAD) Tracking and Keplerian Element Data

This shows tracking and keplerian element data for the satellite.

Feedback or suggestion? Click here.




ElementValue
Catalog46166
NameSTARLINK-1615
Epoch Orbit2386
Epoch Day17.96011145
Epoch Year2021
RAAN101.5424
Inclination53.0609
Eccentricity0.0001589
Argument of Perigee67.3916
Mean Anonmoly292.7241
Mean Motion15.06405603
Decay Rate3.21E-06
L11 46166U 20057BB 21017.96011145 .00000321 00000-0 40440-4 0 9997
L22 46166 53.0609 101.5424 0001589 67.3916 292.7241 15.06405603 23866

Live tracking and technical data element details for STARLINK-1615 (NORAD 46166). STARLINK-1615 can be tracked NOW for your location showing map with azimuth and elevation plus other details from your city location.

Track the satellite on the map from your city or location and see movement details for azimuth, elevation, latitude, longitude, range, height, and movement on the map or in text.







IsCatalogInMostPopularTable: catalog: 46166, numindb: 32
Update: records affected: 1



GetName: 46166 STARLINK-1615

Hit Count: updated at: Tue, 19 Jan 2021 02:17:09 GMT